Mobridge, SD

6:56 AM CDT on October 20, 2017 (GMT -0500)
Mobridge Municipal

Weather History for KMBG - December, 2012

Change the Weather History Date:

Monday, December 10, 2012

  Actual Average Record
Temperature  
Mean Temperature 11 °F 19 °F  
Max Temperature 27 °F 30 °F 60 °F (1979)
Min Temperature -6 °F 9 °F -41 °F (1917)
Degree Days  
Heating Degree Days 54 46  
Month to date heating degree days 370 439  
Since 1 July heating degree days 2117 2205  
Cooling Degree Days 0 0  
Month to date cooling degree days 0 0  
Year to date cooling degree days 866 644  
Moisture  
Dew Point 6 °F    
Average Humidity 82    
Maximum Humidity 96    
Minimum Humidity 68    
Precipitation  
Precipitation T in 0.01 in 0.16 in (1949)
Month to date precipitation 0.46 0.08  
Year to date precipitation 13.63 17.51  
Snow  
Snow T in - - ()
Month to date snowfall 7.1  
Since 1 July snowfall 7.6  
Snow Depth 7.00 in    
Sea Level Pressure  
Sea Level Pressure 29.90 in    
Wind  
Wind Speed 9 mph (South)    
Max Wind Speed 18 mph    
Max Gust Speed 23 mph    
Visibility 7 miles    
Events Snow    
T = Trace of Precipitation, MM = Missing Value Source: NWS Daily Summary

Daily Weather History Graph

Daily Weather History Graph

Search for Another Location

Airport or City:

Trip Planner

Search our weather history database for the weather conditions in past years. The results will help you decide how hot, cold, wet, or windy it might be!

Date:

Astronomy

Dec. 10, 2012 Rise Set
Actual Time 8:11 AM CST 4:57 PM CST
Civil Twilight 7:37 AM CST 5:32 PM CST
Nautical Twilight 6:59 AM CST 6:09 PM CST
Astronomical Twilight 6:23 AM CST 6:45 PM CST
Moon 4:51 AM CST (12/10) 2:53 PM CST (12/10)
Length of Visible Light 9h 54m
Length of Day
8h 46m
Waning Crescent, 10% of the Moon is Illuminated
Dec 10
Waning Crescent
Dec 13
New
Dec 19
First Quarter
Dec 28
Full
Jan 4
Last Quarter

Hourly Weather History & Observations

Time (CST) Temp. Windchill Dew Point Humidity Pressure Visibility Wind Dir Wind Speed Gust Speed Precip Events Conditions
12:52 AM -2.0 °F -12.2 °F -5.1 °F 87% 30.19 in 10.0 mi South 4.6 mph - N/A   Clear
1:52 AM -5.1 °F -17.6 °F -8.0 °F 87% 30.16 in 10.0 mi South 5.8 mph - N/A   Clear
2:26 AM -5.8 °F -19.9 °F -7.6 °F 92% 29.99 in 10.0 mi South 6.9 mph - N/A   Scattered Clouds
2:33 AM -2.2 °F -12.5 °F -5.8 °F 85% 29.99 in 2.5 mi SE 4.6 mph - N/A   Mostly Cloudy
2:40 AM -0.4 °F -10.4 °F -2.2 °F 92% 29.98 in 0.8 mi SE 4.6 mph - N/A   Mist
2:52 AM -2.9 °F -17.7 °F -4.0 °F 95% 30.10 in 1.8 mi SSE 8.1 mph - N/A   Mostly Cloudy
2:54 AM -2.2 °F -15.6 °F -5.8 °F 85% 29.97 in 3.0 mi SSE 6.9 mph - N/A   Scattered Clouds
3:52 AM -2.0 °F -15.4 °F -6.0 °F 83% 30.08 in 10.0 mi SSW 6.9 mph - N/A   Clear
4:47 AM 1.4 °F -14.5 °F -2.2 °F 85% 29.91 in 7.0 mi SSE 10.4 mph - N/A   Partly Cloudy
4:52 AM 1.0 °F -14.0 °F -2.0 °F 87% 30.03 in 7.0 mi SSE 9.2 mph - N/A   Partly Cloudy
5:28 AM 3.2 °F -14.6 °F 1.4 °F 92% 29.88 in 4.0 mi SSE 13.8 mph - 0.00 in Snow Light Snow
5:52 AM 5.0 °F -10.8 °F 3.0 °F 92% 29.98 in 2.5 mi South 11.5 mph - 0.00 in Snow Light Snow
6:12 AM 6.8 °F -11.8 °F 3.2 °F 85% 29.85 in 5.0 mi South 17.3 mph 20.7 mph 0.00 in   Overcast
6:32 AM 6.8 °F -10.0 °F 3.2 °F 85% 29.84 in 4.0 mi South 13.8 mph - 0.00 in   Overcast
6:41 AM 6.8 °F -6.9 °F 3.2 °F 85% 29.84 in 2.5 mi South 9.2 mph - 0.00 in   Overcast
6:52 AM 6.1 °F -7.8 °F 3.9 °F 91% 29.97 in 4.0 mi South 9.2 mph - 0.00 in   Overcast
7:27 AM 6.8 °F -8.6 °F 3.2 °F 85% 29.82 in 2.0 mi SSE 11.5 mph - 0.00 in Snow Light Snow
7:52 AM 7.0 °F -9.8 °F 3.9 °F 87% 29.94 in 2.5 mi South 13.8 mph - 0.00 in Snow Light Snow
8:03 AM 6.8 °F -10.0 °F 3.2 °F 85% 29.81 in 5.0 mi South 13.8 mph - 0.00 in   Overcast
8:52 AM 7.0 °F -9.8 °F 3.9 °F 87% 29.92 in 10.0 mi South 13.8 mph - 0.00 in   Mostly Cloudy
8:59 AM 6.8 °F -11.8 °F 3.2 °F 85% 29.78 in 10.0 mi South 17.3 mph - N/A   Mostly Cloudy
9:52 AM 8.1 °F -7.7 °F 5.0 °F 87% 29.91 in 10.0 mi South 12.7 mph - N/A   Overcast
10:52 AM 10.0 °F -3.7 °F 7.0 °F 87% 29.89 in 10.0 mi South 10.4 mph - N/A   Overcast
11:52 AM 12.0 °F -1.3 °F 9.0 °F 88% 29.85 in 10.0 mi South 10.4 mph - 0.00 in   Overcast
12:52 PM 15.1 °F 3.3 °F 10.9 °F 84% 29.83 in 10.0 mi SSW 9.2 mph - N/A   Overcast
1:52 PM 18.0 °F 7.7 °F 12.0 °F 78% 29.81 in 10.0 mi SSW 8.1 mph - N/A   Overcast
2:52 PM 19.0 °F 11.1 °F 12.9 °F 77% 29.79 in 10.0 mi SSE 5.8 mph - N/A   Overcast
3:52 PM 19.9 °F 14.9 °F 15.1 °F 81% 29.80 in 10.0 mi SSE 3.5 mph - N/A   Overcast
4:52 PM 24.1 °F 15.2 °F 17.1 °F 75% 29.81 in 10.0 mi NNW 8.1 mph - N/A   Scattered Clouds
5:52 PM 26.1 °F 15.6 °F 19.9 °F 78% 29.82 in 10.0 mi NNW 11.5 mph - N/A   Overcast
6:52 PM 27.0 °F 15.2 °F 19.0 °F 72% 29.83 in 10.0 mi NW 15.0 mph - N/A   Overcast
7:52 PM 26.1 °F 13.6 °F 18.0 °F 71% 29.83 in 10.0 mi NW 16.1 mph 23.0 mph N/A   Overcast
8:52 PM 21.9 °F 12.5 °F 17.1 °F 82% 29.85 in 10.0 mi WNW 8.1 mph - N/A   Clear
9:52 PM 21.0 °F 12.4 °F 17.1 °F 85% 29.85 in 10.0 mi West 6.9 mph - N/A   Mostly Cloudy
10:52 PM 17.1 °F 11.7 °F 15.1 °F 92% 29.86 in 10.0 mi NW 3.5 mph - N/A   Clear
11:35 PM 19.4 °F - 15.8 °F 86% 29.76 in 10.0 mi Calm Calm - N/A   Overcast
11:52 PM 21.0 °F - 17.1 °F 85% 29.84 in 10.0 mi Calm Calm - N/A   Overcast